Lid_Strength_Index
14 17 18 16 16 17 17 18 19 18 16 17 18 18 17 16 17 17 17 17 17 16 16 15 14 14 14 13 13 12 13 13 13 14 15 15 16 16 15 14 13 13 13 13
16 18 14 14 15 16 17 19 19 17 16 17 18 18 17 17 18 17 17 17 17 17 16 15 14 14 14 14 13 13 13 13 13 14 15 15 16 16 15 14 14 14 13 13
17 15 14 15 16 17 18 19 19 18 18 18 19 20 19 17 17 16 16 17 16 16 16 16 15 15 14 14 14 14 14 14 14 14 14 15 15 15 16 15 15 15 14 13
15 15 15 16 17 17 19 17 17 18 20 21 19 25 20 18 17 16 17 17 17 17 16 15 15 16 16 15 15 15 14 15 14 14 15 16 16 16 16 16 16 16 15 14
17 17 17 17 17 16 18 16 17 18 21 24 21 26 21 19 19 18 17 16 16 16 16 15 15 15 15 15 16 16 15 15 15 15 15 16 17 16 16 16 17 17 16 15
16 15 15 16 16 15 16 17 17 19 22 28 23 22 21 21 19 18 17 16 16 16 15 14 15 15 16 16 16 16 16 15 15 16 16 16 17 17 17 17 18 17 15 15
17 16 15 15 17 16 17 18 25 27 29 26 21 22 20 19 18 18 17 17 17 15 15 15 16 16 16 16 16 16 16 16 16 16 16 16 16 17 18 18 16 16 16 16
20 21 17 15 17 18 18 18 22 28 29 26 20 25 20 19 22 23 20 21 16 15 15 16 16 16 16 16 16 16 16 17 17 17 17 17 17 17 16 15 15 16 17 17
20 20 16 16 16 16 18 20 18 24 27 26 25 21 18 17 19 20 21 16 16 16 16 17 17 17 17 17 17 17 17 16 16 17 18 19 17 16 16 16 16 16 14 15
17 22 17 17 16 16 18 17 21 24 29 29 27 26 22 21 21 19 20 18 17 17 17 18 18 17 17 17 16 17 18 19 19 18 18 17 17 18 19 19 17 15 15 15
17 19 19 17 19 20 19 21 19 19 24 29 31 26 23 21 21 20 20 17 19 18 19 19 19 19 21 21 22 21 21 23 20 19 19 19 18 18 21 19 16 16 15 15
15 19 22 22 20 17 18 21 19 23 26 25 28 25 25 24 21 21 19 16 19 18 20 20 20 23 23 23 22 23 25 25 22 22 21 19 19 20 22 20 17 16 16 15
16 18 23 22 19 17 20 19 20 21 24 25 25 24 25 27 24 20 21 19 18 18 20 22 22 23 24 24 24 27 28 25 23 23 22 20 20 21 23 24 20 16 16 16
13 18 22 22 21 20 21 18 19 20 24 25 25 25 24 21 22 21 21 19 22 21 24 25 23 23 22 24 25 25 25 26 25 25 23 22 23 23 23 23 19 16 16 15
15 20 22 22 22 23 23 23 19 20 23 21 24 24 23 21 20 21 23 24 23 22 23 25 25 23 23 22 22 23 25 26 27 27 25 23 25 26 26 25 22 17 16 15
16 20 21 22 22 26 21 20 22 18 18 23 31 25 21 27 29 24 25 26 26 25 24 26 26 23 21 21 22 21 22 23 28 28 25 27 27 26 24 24 23 21 20 21
17 21 22 26 23 23 25 23 20 21 21 18 21 19 27 25 26 27 23 18 18 17 24 25 26 25 22 21 18 21 21 24 25 25 23 22 22 21 21 20 20 20 21 21
19 21 21 26 24 28 23 29 23 19 23 21 26 27 23 23 26 21 17 23 22 23 25 24 25 21 21 20 20 19 18 18 20 22 21 20 20 19 19 19 19 19 20 20
17 19 25 26 28 24 21 25 22 21 21 20 18 26 28 28 24 18 16 23 24 25 25 25 25 26 21 21 20 19 19 19 19 20 20 19 19 19 18 18 19 19 19 18
15 17 20 28 29 29 23 22 21 24 23 27 25 22 23 19 22 23 16 21 24 25 24 23 23 23 22 21 20 18 18 19 19 18 18 18 18 18 18 18 18 17 18 17
18 18 22 25 29 24 21 18 17 22 21 28 29 27 20 20 21 24 26 24 24 23 22 22 23 23 23 21 20 20 20 20 19 19 19 19 19 19 18 18 17 18 18 18
19 20 22 23 25 25 18 18 19 20 20 22 25 26 23 26 26 25 25 23 22 22 21 20 20 20 20 20 20 21 21 20 20 20 21 21 21 20 19 20 19 20 20 20
21 18 20 19 19 18 20 18 21 24 21 24 21 22 20 20 21 19 19 20 19 19 19 19 20 20 20 20 21 22 21 21 22 23 23 22 22 20 20 20 20 21 22 21
18 16 18 18 17 18 19 19 20 20 17 17 16 17 17 18 19 20 19 19 20 19 20 20 21 22 22 21 21 22 22 22 24 25 23 22 22 21 21 20 19 20 20 21
16 15 16 17 16 17 16 15 15 17 17 17 18 18 18 18 19 20 19 20 20 20 20 21 22 22 22 22 23 23 23 23 24 23 23 22 22 22 22 21 21 19 19 18
14 15 17 17 14 14 13 14 14 16 16 17 18 18 18 18 19 19 20 20 21 22 22 22 23 23 24 24 24 25 25 25 25 24 23 22 22 21 21 20 20 17 16 15